This is the latest recevied weather packets stored in our database for station/object OE-11061. If no packets are shown the sender has not sent any weather packets the latest 10 day(s).
| Time | Temp. | Humidity | Pressure | Rain* | Wind** | Luminosity | Snow |
|---|---|---|---|---|---|---|---|
| 1787977521 | 12.78° C | 94% | 1018.3 hPa | 0 mm | - | 0 W/m² | - |
| 1787976694 | 13.33° C | 93% | 1018.1 hPa | 0 mm | - | 0 W/m² | - |
| 1787976321 | 13.33° C | 93% | 1018 hPa | 0 mm | - | 0 W/m² | - |
| 1787975721 | 13.33° C | 93% | 1018 hPa | 0 mm | - | 0 W/m² | - |
| 1787975121 | 13.33° C | 91% | 1017.9 hPa | 0 mm | - | 0 W/m² | - |
| 1787974520 | 13.33° C | 92% | 1017.9 hPa | 0 mm | - | 0 W/m² | - |
| 1787973921 | 13.89° C | 92% | 1018 hPa | 0 mm | - | 0 W/m² | - |
| 1787973094 | 13.89° C | 93% | 1018.1 hPa | 0 mm | - | 0 W/m² | - |
| 1787972721 | 13.89° C | 91% | 1018.1 hPa | 0 mm | - | 0 W/m² | - |
| 1787972122 | 14.44° C | 90% | 1018.1 hPa | 0 mm | - | 0 W/m² | - |
| 1787971294 | 14.44° C | 89% | 1018 hPa | 0 mm | - | 0 W/m² | - |
| 1787970921 | 14.44° C | 90% | 1018 hPa | 0 mm | - | 0 W/m² | - |
| 1787970321 | 15° C | 88% | 1018.1 hPa | 0 mm | - | 0 W/m² | - |
| 1787969494 | 14.44° C | 88% | 1018 hPa | 0 mm | - | 0 W/m² | - |
| 1787969121 | 14.44° C | 93% | 1017.8 hPa | 0 mm | - | 0 W/m² | - |
| 1787968521 | 14.44° C | 93% | 1018 hPa | 0 mm | - | 0 W/m² | - |
| 1787967694 | 15° C | 92% | 1018.1 hPa | 0 mm | - | 0 W/m² | - |
| 1787967321 | 15° C | 94% | 1018.1 hPa | 0 mm | - | 0 W/m² | - |
| 1787966721 | 15° C | 94% | 1018.3 hPa | 0 mm | - | 0 W/m² | - |
| 1787965894 | 15° C | 94% | 1018.3 hPa | 0 mm | - | 0 W/m² | - |
| 1787964921 | 15° C | 91% | 1018.3 hPa | 0 mm | - | 0 W/m² | - |
| 1787964094 | 15° C | 89% | 1018.1 hPa | 0 mm | - | 0 W/m² | - |
| 1787963721 | 15.56° C | 89% | 1017.8 hPa | 0 mm | - | 0 W/m² | - |
| 1787963121 | 15.56° C | 88% | 1018 hPa | 0 mm | - | 0 W/m² | - |
| 1787961921 | 15.56° C | 90% | 1018.8 hPa | 0 mm | - | 0 W/m² | - |
* Rain latest hour (hover to see other rain measurements)
** Current wind speed in m/s (hover to see current wind gust speed)